When you browse on this site, cookies collect data to enhance your experience and personalize the content and advertising you see.
Visit our Privacy Policy to learn more. By continuing to use the site, you agree to this use of cookies and data.
  • In Österreich
  • Länderverzeichnis
  • Für 7 Tage
  • Wassertemperatur
  • Satellitenkarten
  • Wetterkarte
  • News
  • Widgets
  • user-avatar
    Anmelden

    Stündliche Wetter Mayrhofen

    Heute, 21 März, Donnerstag

    Zeit Temperatur Niederschläge Wind Luftdruck Luftfeuchtigkeit
    00:00 -9°C° 0 mm 1 m/S 622 mmHg 66%
    01:00 -8°C° 0 mm 1 m/S 622 mmHg 62%
    02:00 -8°C° 0 mm 1 m/S 622 mmHg 58%
    03:00 -8°C° 0 mm 1 m/S 622 mmHg 55%
    04:00 -8°C° 0 mm 1 m/S 622 mmHg 52%
    05:00 -8°C° 0 mm 2 m/S 622 mmHg 49%
    06:00 -8°C° 0 mm 2 m/S 622 mmHg 47%
    07:00 -6°C° 0 mm 2 m/S 623 mmHg 46%
    08:00 -4°C° 0 mm 2 m/S 624 mmHg 50%
    09:00 -1°C° 0 mm 2 m/S 624 mmHg 54%
    10:00 +3°C° 0 mm 2 m/S 625 mmHg 58%
    11:00 +4°C° 0 mm 2 m/S 625 mmHg 62%
    12:00 +6°C° 0 mm 1 m/S 625 mmHg 66%
    13:00 +7°C° 0 mm 1 m/S 625 mmHg 69%
    14:00 +7°C° 0 mm 1 m/S 625 mmHg 70%
    15:00 +7°C° 0 mm 1 m/S 625 mmHg 71%
    16:00 +7°C° 0 mm 1 m/S 625 mmHg 72%
    17:00 +5°C° 0 mm 1 m/S 624 mmHg 68%
    18:00 +2°C° 0 mm 1 m/S 623 mmHg 63%
    19:00 0°C° 0 mm 1 m/S 622 mmHg 58%
    20:00 -1°C° 0 mm 1 m/S 623 mmHg 54%
    21:00 -3°C° 0 mm 2 m/S 623 mmHg 51%
    22:00 -4°C° 0 mm 2 m/S 623 mmHg 47%
    23:00 -4°C° 0 mm 2 m/S 623 mmHg 46%

    Morgen, 22 März, Freitag

    Zeit Temperatur Niederschläge Wind Luftdruck Luftfeuchtigkeit
    00:00 -4°C° 0 mm 2 m/S 623 mmHg 44%
    01:00 -4°C° 0 mm 2 m/S 623 mmHg 42%
    02:00 -4°C° 0 mm 2 m/S 622 mmHg 42%
    03:00 -4°C° 0 mm 2 m/S 622 mmHg 41%
    04:00 -4°C° 0 mm 2 m/S 622 mmHg 41%
    05:00 -4°C° 0 mm 2 m/S 622 mmHg 41%
    06:00 -3°C° 0 mm 2 m/S 622 mmHg 41%
    07:00 -3°C° 0 mm 2 m/S 623 mmHg 42%
    08:00 +1°C° 0 mm 2 m/S 623 mmHg 51%
    09:00 +3°C° 0 mm 2 m/S 624 mmHg 60%
    10:00 +7°C° 0 mm 1 m/S 625 mmHg 70%
    11:00 +8°C° 0 mm 1 m/S 625 mmHg 68%
    12:00 +9°C° 0 mm 1 m/S 625 mmHg 67%
    13:00 +10°C° 0 mm 1 m/S 626 mmHg 65%
    14:00 +10°C° 0 mm 1 m/S 625 mmHg 65%
    15:00 +10°C° 0 mm 1 m/S 625 mmHg 66%
    16:00 +8°C° 0 mm 0 m/S 624 mmHg 66%
    17:00 +6°C° 0 mm 0 m/S 623 mmHg 67%
    18:00 +3°C° 0 mm 0 m/S 623 mmHg 69%
    19:00 +1°C° 0 mm 0 m/S 622 mmHg 70%
    20:00 +2°C° 0 mm 1 m/S 622 mmHg 69%
    21:00 +1°C° 0 mm 1 m/S 622 mmHg 67%
    22:00 +1°C° 0 mm 1 m/S 622 mmHg 65%
    23:00 +1°C° 0 mm 1 m/S 622 mmHg 64%

    übermorgen, 23 März, Samstag

    Zeit Temperatur Niederschläge Wind Luftdruck Luftfeuchtigkeit
    00:00 +1°C° 0 mm 1 m/S 622 mmHg 62%
    01:00 0°C° 0 mm 1 m/S 622 mmHg 61%
    02:00 0°C° 0 mm 1 m/S 622 mmHg 61%
    03:00 0°C° 0 mm 1 m/S 621 mmHg 61%
    04:00 0°C° 0 mm 1 m/S 621 mmHg 62%
    05:00 0°C° 0 mm 1 m/S 621 mmHg 62%
    06:00 0°C° 0 mm 1 m/S 621 mmHg 63%
    07:00 0°C° 0 mm 1 m/S 621 mmHg 64%
    08:00 +3°C° 0 mm 1 m/S 622 mmHg 63%
    09:00 +5°C° 0 mm 1 m/S 623 mmHg 62%
    10:00 +7°C° 0 mm 0 m/S 623 mmHg 61%
    11:00 +8°C° 0 mm 1 m/S 624 mmHg 59%
    12:00 +9°C° 0 mm 1 m/S 624 mmHg 57%
    13:00 +10°C° 0 mm 1 m/S 624 mmHg 55%
    14:00 +10°C° 0 mm 1 m/S 623 mmHg 57%
    15:00 +10°C° 0 mm 1 m/S 623 mmHg 58%
    16:00 +9°C° 0 mm 1 m/S 623 mmHg 60%
    17:00 +7°C° 0 mm 1 m/S 622 mmHg 68%
    18:00 +5°C° 0 mm 1 m/S 621 mmHg 75%
    19:00 +1°C° 0 mm 0 m/S 620 mmHg 83%
    20:00 +1°C° 0 mm 0 m/S 621 mmHg 84%
    21:00 +2°C° 0 mm 1 m/S 621 mmHg 85%
    22:00 +1°C° 0 mm 1 m/S 621 mmHg 86%
    23:00 +1°C° 0 mm 1 m/S 621 mmHg 84%

    24 März, Sonntag

    Zeit Temperatur Niederschläge Wind Luftdruck Luftfeuchtigkeit
    00:00 +1°C° 0 mm 1 m/S 621 mmHg 81%
    01:00 +1°C° 0 mm 1 m/S 621 mmHg 79%
    02:00 +1°C° 0 mm 1 m/S 621 mmHg 75%
    03:00 +1°C° 0 mm 1 m/S 620 mmHg 71%
    04:00 -1°C° 0 mm 2 m/S 620 mmHg 66%
    05:00 +1°C° 0 mm 1 m/S 620 mmHg 64%
    06:00 +1°C° 0 mm 1 m/S 620 mmHg 61%
    07:00 +1°C° 0 mm 1 m/S 620 mmHg 58%
    08:00 +4°C° 0 mm 1 m/S 621 mmHg 53%
    09:00 +6°C° 0 mm 1 m/S 622 mmHg 48%
    10:00 +7°C° 0 mm 0 m/S 622 mmHg 44%
    11:00 +9°C° 0 mm 1 m/S 622 mmHg 45%
    12:00 +10°C° 0 mm 1 m/S 622 mmHg 46%
    13:00 +10°C° 0 mm 1 m/S 622 mmHg 46%
    14:00 +10°C° 0 mm 1 m/S 622 mmHg 52%
    15:00 +8°C° 0 mm 2 m/S 621 mmHg 57%
    16:00 +8°C° 0 mm 2 m/S 621 mmHg 63%
    17:00 +6°C° 0.1 mm 2 m/S 620 mmHg 73%
    18:00 +5°C° 0.1 mm 2 m/S 620 mmHg 83%
    19:00 +3°C° 0.1 mm 2 m/S 620 mmHg 94%
    20:00 +3°C° 0.1 mm 2 m/S 620 mmHg 95%
    21:00 +3°C° 0.1 mm 2 m/S 620 mmHg 96%
    22:00 +2°C° 0.1 mm 2 m/S 620 mmHg 96%
    23:00 +2°C° 0 mm 2 m/S 620 mmHg 97%

    25 März, Montag

    Zeit Temperatur Niederschläge Wind Luftdruck Luftfeuchtigkeit
    00:00 +1°C° 0 mm 2 m/S 620 mmHg 97%
    01:00 +2°C° 0 mm 1 m/S 620 mmHg 97%
    02:00 +2°C° 0 mm 1 m/S 620 mmHg 96%
    03:00 +1°C° 0 mm 1 m/S 619 mmHg 96%
    04:00 +1°C° 0 mm 1 m/S 619 mmHg 95%
    05:00 -1°C° 0 mm 2 m/S 619 mmHg 95%
    06:00 -1°C° 0 mm 2 m/S 620 mmHg 94%
    07:00 -1°C° 0 mm 2 m/S 620 mmHg 94%
    08:00 +1°C° 0.2 mm 2 m/S 620 mmHg 90%
    09:00 +1°C° 0.2 mm 2 m/S 621 mmHg 86%
    10:00 +1°C° 0.2 mm 3 m/S 621 mmHg 82%
    11:00 +1°C° 0.1 mm 3 m/S 621 mmHg 79%
    12:00 +2°C° 0.1 mm 3 m/S 621 mmHg 76%
    13:00 +2°C° 0.1 mm 3 m/S 621 mmHg 73%
    14:00 +2°C° 0.1 mm 3 m/S 620 mmHg 75%
    15:00 +1°C° 0.1 mm 3 m/S 620 mmHg 76%
    16:00 +1°C° 0.1 mm 3 m/S 620 mmHg 77%
    17:00 0°C° 0.1 mm 3 m/S 620 mmHg 83%
    18:00 -1°C° 0.1 mm 3 m/S 620 mmHg 88%
    19:00 -2°C° 0.1 mm 3 m/S 620 mmHg 93%
    20:00 -4°C° 0.1 mm 3 m/S 620 mmHg 92%
    21:00 -4°C° 0.1 mm 3 m/S 620 mmHg 92%
    22:00 -4°C° 0.1 mm 3 m/S 621 mmHg 91%
    23:00 -4°C° 0.1 mm 2 m/S 620 mmHg 91%

    26 März, Dienstag

    Zeit Temperatur Niederschläge Wind Luftdruck Luftfeuchtigkeit
    00:00 -4°C° 0.1 mm 2 m/S 620 mmHg 91%
    01:00 -5°C° 0.1 mm 2 m/S 620 mmHg 92%
    02:00 -5°C° 0 mm 2 m/S 620 mmHg 91%
    03:00 -6°C° 0 mm 2 m/S 620 mmHg 90%
    04:00 -6°C° 0 mm 2 m/S 620 mmHg 90%
    05:00 -6°C° 0 mm 2 m/S 620 mmHg 87%
    06:00 -6°C° 0 mm 2 m/S 620 mmHg 84%
    07:00 -5°C° 0 mm 2 m/S 620 mmHg 82%
    08:00 -4°C° 0 mm 2 m/S 621 mmHg 74%
    09:00 -2°C° 0 mm 3 m/S 621 mmHg 66%
    10:00 -1°C° 0 mm 3 m/S 621 mmHg 58%
    11:00 0°C° 0 mm 3 m/S 621 mmHg 58%
    12:00 0°C° 0 mm 3 m/S 621 mmHg 57%
    13:00 +1°C° 0 mm 3 m/S 621 mmHg 56%
    14:00 +1°C° 0 mm 3 m/S 621 mmHg 58%
    15:00 0°C° 0 mm 3 m/S 621 mmHg 61%
    16:00 -1°C° 0 mm 4 m/S 620 mmHg 63%
    17:00 -1°C° 0.1 mm 3 m/S 620 mmHg 72%
    18:00 -2°C° 0.1 mm 3 m/S 620 mmHg 81%
    19:00 -4°C° 0.1 mm 3 m/S 620 mmHg 90%
    20:00 -5°C° 0.1 mm 3 m/S 621 mmHg 90%
    21:00 -5°C° 0.1 mm 3 m/S 621 mmHg 91%
    22:00 -4°C° 0.1 mm 2 m/S 621 mmHg 92%
    23:00 -4°C° 0 mm 2 m/S 621 mmHg 91%
    Mehr zeigen